This is the latest recevied weather packets stored in our database for station/object JE0GNV-13. If no packets are shown the sender has not sent any weather packets the latest 10 day(s).
| Time | Temp. | Humidity | Pressure | Rain* | Wind** | Luminosity | Snow |
|---|---|---|---|---|---|---|---|
| 1778039402 | 15.56° C | 70% | 1018 hPa | 0 mm | - | - | - |
| 1778038801 | 15.56° C | 70% | 1018 hPa | 0 mm | - | - | - |
| 1778038200 | 15.56° C | 68% | 1018.1 hPa | 0 mm | - | - | - |
| 1778037602 | 15.56° C | 70% | 1018.2 hPa | 0 mm | - | - | - |
| 1778037001 | 16.11° C | 67% | 1018.2 hPa | 0 mm | - | - | - |
| 1778036402 | 16.11° C | 69% | 1018.3 hPa | 0 mm | - | - | - |
| 1778035801 | 16.11° C | 68% | 1018.3 hPa | 0 mm | - | - | - |
| 1778035201 | 16.11° C | 67% | 1018.3 hPa | 0 mm | - | - | - |
| 1778034602 | 16.11° C | 69% | 1018.4 hPa | 0 mm | - | - | - |
| 1778034000 | 16.11° C | 68% | 1018.5 hPa | 0 mm | - | - | - |
| 1778033400 | 16.11° C | 69% | 1018.5 hPa | 0 mm | - | - | - |
| 1778032802 | 16.11° C | 68% | 1018.6 hPa | 0 mm | - | - | - |
| 1778032201 | 16.11° C | 67% | 1018.8 hPa | 0 mm | - | - | - |
| 1778031601 | 16.11° C | 68% | 1018.9 hPa | 0 mm | - | - | - |
| 1778031002 | 15.56° C | 68% | 1019 hPa | 0 mm | - | - | - |
| 1778030401 | 15.56° C | 68% | 1019.2 hPa | 0 mm | - | - | - |
| 1778029801 | 15° C | 68% | 1019.2 hPa | 0 mm | - | - | - |
| 1778029201 | 14.44° C | 68% | 1019.5 hPa | 0 mm | - | - | - |
| 1778028601 | 13.89° C | 71% | 1019.6 hPa | 0 mm | - | - | - |
| 1778028002 | 13.33° C | 74% | 1019.6 hPa | 0 mm | - | - | - |
| 1778027400 | 12.78° C | 70% | 1019.7 hPa | 0 mm | - | - | - |
| 1778026801 | 12.22° C | 73% | 1019.8 hPa | 0 mm | - | - | - |
| 1778026201 | 11.67° C | 76% | 1019.8 hPa | 0 mm | - | - | - |
| 1778025601 | 11.67° C | 76% | 1019.9 hPa | 0 mm | - | - | - |
| 1778025001 | 11.11° C | 76% | 1020 hPa | 0 mm | - | - | - |
* Rain latest hour (hover to see other rain measurements)
** Current wind speed in m/s (hover to see current wind gust speed)